Weather History for Oceana NAS, VA

Change the Weather History Date:

Saturday, November 10, 2012

  Actual Average Record
Temperature  
Mean Temperature 50 °F -  
Max Temperature 64 °F 58 °F 77 °F (2002)
Min Temperature 37 °F 41 °F 34 °F (1996)
Degree Days  
Heating Degree Days 14    
Moisture  
Dew Point 38 °F    
Average Humidity 64    
Maximum Humidity 93    
Minimum Humidity 35    
Precipitation  
Precipitation 0.00 in - - ()
Sea Level Pressure  
Sea Level Pressure 30.34 in    
Wind  
Wind Speed 3 mph (South)    
Max Wind Speed 12 mph    
Max Gust Speed -    
Visibility 10 miles    
Events      
Averages and records for this station are not official NWS values.
T = Trace of Precipitation, MM = Missing Value Source: NWS Daily Summary

Daily Weather History Graph

Daily Weather History Graph

Search for Another Location

Airport:

Trip Planner

Search our weather history database for the weather conditions in past years. The results will help you decide how hot, cold, wet, or windy it might be!

Date:

Astronomy

Nov. 10, 2012 Rise Set
Actual Time 6:37 AM EST 4:58 PM EST
Civil Twilight 6:10 AM EST 5:25 PM EST
Nautical Twilight 5:39 AM EST 5:56 PM EST
Astronomical Twilight 5:08 AM EST 6:27 PM EST
Moon 2:45 AM EST (11/10) 2:39 PM EST (11/10)
Length of Visible Light 11h 15m
Length of Day
10h 20m
Waning Crescent, 14% of the Moon is Illuminated
Nov 10
Waning Crescent
Nov 13
New
Nov 20
First Quarter
Nov 28
Full
Dec 6
Last Quarter

Hourly Weather History & Observations

Time (EST) Temp. Dew Point Humidity Pressure Visibility Wind Dir Wind Speed Gust Speed Precip Events Conditions
12:56 AM 37.9 °F 36.0 °F 93% 30.26 in 10.0 mi Calm Calm - N/A   Clear
1:56 AM 37.9 °F 35.1 °F 89% 30.26 in 9.0 mi Calm Calm - N/A   Clear
2:56 AM 37.9 °F 34.0 °F 86% 30.28 in 8.0 mi Calm Calm - N/A   Clear
3:56 AM 37.9 °F 34.0 °F 86% 30.28 in 10.0 mi Calm Calm - N/A   Clear
4:56 AM 37.9 °F 34.0 °F 86% 30.30 in 8.0 mi Calm Calm - N/A   Clear
5:56 AM 37.0 °F 34.0 °F 89% 30.32 in 9.0 mi Calm Calm - N/A   Clear
6:56 AM 37.0 °F 34.0 °F 89% 30.34 in 9.0 mi Calm Calm - N/A   Partly Cloudy
7:56 AM 43.0 °F 39.0 °F 86% 30.36 in 10.0 mi Calm Calm - N/A   Partly Cloudy
8:56 AM 52.0 °F 37.0 °F 57% 30.37 in 10.0 mi SW 4.6 mph - N/A   Clear
9:56 AM 57.0 °F 36.0 °F 45% 30.38 in 10.0 mi SW 4.6 mph - N/A   Clear
10:56 AM 61.0 °F 36.0 °F 39% 30.37 in 10.0 mi WSW 6.9 mph - N/A   Partly Cloudy
11:56 AM 64.0 °F 36.0 °F 35% 30.35 in 10.0 mi SSW 4.6 mph - N/A   Partly Cloudy
12:56 PM 64.9 °F 43.0 °F 45% 30.33 in 10.0 mi ESE 9.2 mph - N/A   Scattered Clouds
1:56 PM 63.0 °F 42.1 °F 46% 30.31 in 10.0 mi ESE 11.5 mph - N/A   Partly Cloudy
2:56 PM 63.0 °F 41.0 °F 45% 30.31 in 10.0 mi SE 9.2 mph - N/A   Partly Cloudy
3:56 PM 60.1 °F 41.0 °F 49% 30.32 in 10.0 mi SE 10.4 mph - N/A   Scattered Clouds
4:56 PM 55.9 °F 43.0 °F 62% 30.34 in 10.0 mi SE 6.9 mph - N/A   Scattered Clouds
5:56 PM 55.0 °F 42.1 °F 62% 30.36 in 10.0 mi SSE 10.4 mph - N/A   Scattered Clouds
6:56 PM 54.0 °F 41.0 °F 62% 30.38 in 10.0 mi SSE 9.2 mph - N/A   Partly Cloudy
7:56 PM 54.0 °F 41.0 °F 62% 30.39 in 10.0 mi SSE 6.9 mph - N/A   Partly Cloudy
8:56 PM 53.1 °F 39.0 °F 59% 30.40 in 10.0 mi SSE 6.9 mph - N/A   Scattered Clouds
9:56 PM 53.1 °F 37.0 °F 55% 30.41 in 10.0 mi South 6.9 mph - N/A   Partly Cloudy
10:56 PM 52.0 °F 36.0 °F 54% 30.42 in 10.0 mi South 3.5 mph - N/A   Partly Cloudy
11:56 PM 51.1 °F 36.0 °F 56% 30.42 in 10.0 mi South 3.5 mph - N/A   Partly Cloudy